GW5080 Weather Reports


time (UTC)temp
C
wind
direction
speed
KPH
gust
KPH
rain 1hr
cm
rain 24hr
cm
rain mn
cm
humidity
%
barometer
mb
20260505230004 24 208 14.5 33.8 0.00 0.00 0.00 49 1015.1
20260505225505 25 192 16.1 25.7 0.00 0.00 0.00 49 1015.1
20260505225006 25 191 9.7 32.2 0.00 0.00 0.00 49 1015.1
20260505224006 25 200 16.1 29.0 0.00 0.00 0.00 48 1015.1
20260505223504 25 209 11.3 24.1 0.00 0.00 0.00 48 1015.1
20260505223005 25 193 14.5 27.4 0.00 0.00 0.00 47 1015.1
20260505222005 26 204 19.3 32.2 0.00 0.00 0.00 46 1015.1
20260505221504 26 201 14.5 27.4 0.00 0.00 0.00 46 1015.1
20260505220505 25 196 14.5 29.0 0.00 0.00 0.00 47 1015.2
20260505220004 26 208 11.3 19.3 0.00 0.00 0.00 46 1015.2
20260505215504 26 199 11.3 37.0 0.00 0.00 0.00 45 1015.1
20260505215005 26 229 12.9 32.2 0.00 0.00 0.00 45 1015.1
20260505214505 26 177 8.0 24.1 0.00 0.00 0.00 46 1015.1
20260505213504 26 193 19.3 35.4 0.00 0.00 0.00 44 1015.1
20260505212504 26 187 16.1 35.4 0.00 0.00 0.00 45 1015.2
20260505212004 26 200 11.3 33.8 0.00 0.00 0.00 46 1015.2
20260505211504 26 202 19.3 32.2 0.00 0.00 0.00 45 1015.3
20260505210505 26 176 11.3 25.7 0.00 0.00 0.00 46 1015.5
20260505210005 26 220 17.7 27.4 0.00 0.00 0.00 46 1015.5
20260505205504 26 207 14.5 29.0 0.00 0.00 0.00 47 1015.4
20260505205005 26 208 20.9 37.0 0.00 0.00 0.00 44 1015.4
20260505204005 26 176 16.1 35.4 0.00 0.00 0.00 46 1015.4
20260505203504 26 205 11.3 35.4 0.00 0.00 0.00 46 1015.4
20260505203005 26 231 16.1 37.0 0.00 0.00 0.00 45 1015.4
20260505202505 26 206 20.9 35.4 0.00 0.00 0.00 45 1015.5
20260505202004 26 198 17.7 29.0 0.00 0.00 0.00 46 1015.5
20260505201505 26 211 16.1 33.8 0.00 0.00 0.00 45 1015.6
20260505201004 26 200 19.3 33.8 0.00 0.00 0.00 45 1015.7
20260505200505 26 223 16.1 33.8 0.00 0.00 0.00 44 1015.7
20260505200005 26 207 19.3 29.0 0.00 0.00 0.00 46 1015.8
20260505195506 26 173 22.5 35.4 0.00 0.00 0.00 45 1016.0
20260505194504 26 209 19.3 33.8 0.00 0.00 0.00 47 1016.0
20260505194004 26 194 11.3 32.2 0.00 0.00 0.00 49 1016.2
20260505193504 25 179 16.1 33.8 0.00 0.00 0.00 46 1016.2
20260505193005 25 190 16.1 27.4 0.00 0.00 0.00 47 1016.2
20260505192505 25 184 16.1 27.4 0.00 0.00 0.00 46 1016.5
20260505192005 26 216 19.3 29.0 0.00 0.00 0.00 46 1016.5
20260505191505 26 219 11.3 20.9 0.00 0.00 0.00 47 1016.5
20260505190504 26 214 12.9 29.0 0.00 0.00 0.00 49 1016.6
20260505190005 25 206 17.7 29.0 0.00 0.00 0.00 47 1016.7
20260505185505 26 175 12.9 24.1 0.00 0.00 0.00 48 1017.0
20260505185005 26 195 20.9 27.4 0.00 0.00 0.00 45 1017.0
20260505184004 26 184 16.1 27.4 0.00 0.00 0.00 45 1017.1
20260505183504 25 205 16.1 27.4 0.00 0.00 0.00 47 1017.1
20260505183005 25 236 9.7 32.2 0.00 0.00 0.00 49 1017.1
20260505182505 25 210 11.3 33.8 0.00 0.00 0.00 46 1017.1
20260505182004 26 193 16.1 27.4 0.00 0.00 0.00 45 1017.1
20260505181505 25 204 12.9 29.0 0.00 0.00 0.00 50 1017.1
20260505180504 25 192 14.5 37.0 0.00 0.00 0.00 49 1017.1
20260505175004 26 184 12.9 24.1 0.00 0.00 0.00 49 1017.2
20260505174004 25 167 19.3 27.4 0.00 0.00 0.00 49 1017.2
20260505173505 25 205 11.3 24.1 0.00 0.00 0.00 49 1017.2
20260505173005 25 323 9.7 27.4 0.00 0.00 0.00 48 1017.2
20260505172505 25 198 16.1 27.4 0.00 0.00 0.00 52 1017.4
20260505172005 25 186 14.5 33.8 0.00 0.00 0.00 53 1017.4
20260505171505 24 224 9.7 24.1 0.00 0.00 0.00 54 1017.5
20260505165505 23 199 11.3 33.8 0.00 0.00 0.00 54 1017.6
20260505165005 24 222 14.5 25.7 0.00 0.00 0.00 54 1017.6
20260505164505 23 215 14.5 25.7 0.00 0.00 0.00 54 1017.6
20260505164005 24 200 16.1 29.0 0.00 0.00 0.00 56 1017.6
20260505163504 24 208 17.7 27.4 0.00 0.00 0.00 54 1017.6
20260505163005 23 224 19.3 32.2 0.00 0.00 0.00 55 1017.7
20260505162504 23 221 8.0 19.3 0.00 0.00 0.00 58 1017.9
20260505162005 23 201 9.7 24.1 0.00 0.00 0.00 58 1017.9
20260505161505 23 211 16.1 27.4 0.00 0.00 0.00 57 1018.0
20260505161004 23 184 14.5 33.8 0.00 0.00 0.00 58 1018.2
20260505160505 23 206 12.9 25.7 0.00 0.00 0.00 58 1018.2
20260505153005 22 207 14.5 27.4 0.00 0.00 0.00 60 1018.3
20260505152505 22 239 4.8 20.9 0.00 0.00 0.00 60 1018.4
20260505152005 22 218 16.1 25.7 0.00 0.00 0.00 60 1018.4
20260505151505 22 222 11.3 20.9 0.00 0.00 0.00 63 1018.4
20260505151005 22 293 12.9 20.9 0.00 0.00 0.00 62 1018.3
20260505150505 22 216 14.5 20.9 0.00 0.00 0.00 60 1018.3
20260505140505 21 210 14.5 29.0 0.00 0.00 0.00 66 1018.3
20260505125005 17 215 4.8 16.1 0.00 0.00 0.00 74 1018.4
20260505124005 17 222 8.0 12.9 0.00 0.00 0.00 75 1018.4
20260505123505 16 207 4.8 11.3 0.00 0.00 0.00 75 1018.4
20260505123005 16 232 4.8 12.9 0.00 0.00 0.00 76 1018.4
20260505122504 16 224 8.0 16.1 0.00 0.00 0.00 76 1018.4
20260505122005 16 249 9.7 16.1 0.00 0.00 0.00 77 1018.4
20260505121504 15 223 6.4 12.9 0.00 0.00 0.00 78 1018.3
20260505121005 15 192 8.0 12.9 0.00 0.00 0.00 79 1018.2
20260505120504 15 212 3.2 8.0 0.00 0.00 0.00 81 1018.2
20260505120005 15 196 6.4 11.3 0.00 0.00 0.00 80 1018.2
20260505115005 15 181 1.6 3.2 0.00 0.00 0.00 80 1018.2
20260505114504 15 181 1.6 4.8 0.00 0.00 0.00 80 1018.2
20260505114005 15 355 1.6 1.6 0.00 0.00 0.00 84 1018.2
20260505113504 13 355 0.0 1.6 0.00 0.00 0.00 88 1018.2
20260505113005 13 355 0.0 1.6 0.00 0.00 0.00 90 1018.2
20260505112504 12 355 0.0 1.6 0.00 0.00 0.00 92 1018.2
20260505112005 12 355 0.0 0.0 0.00 0.00 0.00 92 1018.2
20260505111505 11 355 0.0 1.6 0.00 0.00 0.00 93 1018.1
20260505111005 11 355 0.0 0.0 0.00 0.00 0.00 93 1017.9
20260505102005 10 165 0.0 1.6 0.00 0.00 0.00 90 1017.3
20260505101504 10 172 1.6 1.6 0.00 0.00 0.00 90 1017.3
20260505101004 10 172 0.0 1.6 0.00 0.00 0.00 90 1017.2
20260505100504 10 172 0.0 1.6 0.00 0.00 0.00 89 1017.2
20260505100005 10 172 0.0 1.6 0.00 0.00 0.00 89 1017.2
20260505095005 10 172 0.0 1.6 0.00 0.00 0.00 89 1017.1
20260505094504 10 172 1.6 1.6 0.00 0.00 0.00 88 1017.1
20260505094004 10 172 1.6 3.2 0.00 0.00 0.00 88 1017.1
20260505093505 10 172 1.6 3.2 0.00 0.00 0.00 87 1017.1
20260505092504 11 172 1.6 3.2 0.00 0.00 0.00 86 1016.9
20260505092005 11 172 1.6 3.2 0.00 0.00 0.00 86 1016.9
20260505091505 11 172 0.0 0.0 0.00 0.00 0.00 85 1016.9
20260505091004 11 172 0.0 0.0 0.00 0.00 0.00 84 1016.8
20260505090504 11 172 0.0 0.0 0.00 0.00 0.00 84 1016.8
20260505090005 12 172 0.0 0.0 0.00 0.00 0.00 83 1016.8
20260505085504 12 172 1.6 1.6 0.00 0.00 0.00 82 1016.8
20260505085005 12 172 0.0 1.6 0.00 0.00 0.00 81 1016.8
20260505084504 12 172 1.6 1.6 0.00 0.00 0.00 81 1016.8
20260505083504 13 194 1.6 1.6 0.00 0.00 0.00 79 1016.7
20260505082504 13 194 0.0 1.6 0.00 0.00 0.00 77 1016.6
20260505082005 13 194 0.0 1.6 0.00 0.00 0.00 76 1016.6
20260505081504 13 194 1.6 4.8 0.00 0.00 0.00 76 1016.6
20260505081005 13 176 1.6 3.2 0.00 0.00 0.00 76 1016.6
20260505080504 14 161 1.6 3.2 0.00 0.00 0.00 76 1016.6
20260505080004 14 184 1.6 3.2 0.00 0.00 0.00 75 1016.6
20260505075504 14 179 1.6 4.8 0.00 0.00 0.00 75 1016.5
20260505075005 14 200 4.8 8.0 0.00 0.00 0.00 75 1016.5
20260505074504 14 194 3.2 4.8 0.00 0.00 0.00 74 1016.5
20260505073504 15 200 4.8 8.0 0.00 0.00 0.00 73 1016.5
20260505073004 15 194 4.8 8.0 0.00 0.00 0.00 73 1016.5
20260505072504 15 171 4.8 8.0 0.00 0.00 0.00 72 1016.5
20260505072005 15 181 4.8 9.7 0.00 0.00 0.00 72 1016.5
20260505071504 15 190 8.0 19.3 0.00 0.00 0.00 72 1016.5
20260505071005 15 195 8.0 11.3 0.00 0.00 0.00 71 1016.5
20260505070504 15 200 4.8 11.3 0.00 0.00 0.00 71 1016.5
20260505070005 15 202 4.8 16.1 0.00 0.00 0.00 70 1016.5
20260505065504 15 207 8.0 11.3 0.00 0.00 0.00 70 1016.4
20260505064504 15 204 6.4 12.9 0.00 0.00 0.00 69 1016.4
20260505063505 15 210 4.8 9.7 0.00 0.00 0.00 69 1016.4
20260505063005 16 213 8.0 12.9 0.00 0.00 0.00 69 1016.4
20260505062505 16 204 4.8 12.9 0.00 0.00 0.00 68 1016.4
20260505062004 16 208 6.4 14.5 0.00 0.00 0.00 68 1016.4
20260505061004 16 189 8.0 12.9 0.00 0.00 0.00 68 1016.5
20260505060505 16 199 4.8 9.7 0.00 0.00 0.00 68 1016.5
20260505060005 16 189 8.0 12.9 0.00 0.00 0.00 68 1016.5
20260505055505 16 187 3.2 11.3 0.00 0.00 0.00 67 1016.6
20260505055005 16 197 9.7 12.9 0.00 0.00 0.00 67 1016.6
20260505054504 16 205 4.8 11.3 0.00 0.00 0.00 66 1016.6
20260505054004 16 191 9.7 16.1 0.00 0.00 0.00 66 1016.7
20260505053505 16 207 8.0 12.9 0.00 0.00 0.00 66 1016.7
20260505053005 16 212 6.4 11.3 0.00 0.00 0.00 66 1016.7
20260505052504 16 216 8.0 16.1 0.00 0.00 0.00 66 1016.8
20260505052005 16 206 8.0 14.5 0.00 0.00 0.00 65 1016.8
20260505051504 16 203 9.7 12.9 0.00 0.00 0.00 65 1016.8
20260505051004 17 223 8.0 19.3 0.00 0.00 0.00 65 1016.9
20260505041506 17 215 6.4 24.1 0.00 0.00 0.00 65 1016.8
20260505041006 17 200 11.3 24.1 0.00 0.00 0.00 65 1016.7
20260505040505 17 206 11.3 19.3 0.00 0.00 0.00 65 1016.7
20260505040005 17 215 9.7 16.1 0.00 0.00 0.00 64 1016.7
20260505035504 17 196 9.7 20.9 0.00 0.00 0.00 64 1016.7
20260505035004 17 200 9.7 20.9 0.00 0.00 0.00 64 1016.7
20260505034504 17 197 9.7 16.1 0.00 0.00 0.00 64 1016.7
20260505034005 17 222 11.3 25.7 0.00 0.00 0.00 63 1016.7
20260505033005 17 206 9.7 19.3 0.00 0.00 0.00 63 1016.7
20260505032504 17 196 14.5 20.9 0.00 0.00 0.00 63 1016.7
20260505032004 17 207 9.7 24.1 0.00 0.00 0.00 62 1016.7
20260505031504 18 192 9.7 25.7 0.00 0.00 0.00 62 1016.7
20260505031004 18 219 8.0 16.1 0.00 0.00 0.00 62 1016.7
20260505030004 18 206 12.9 24.1 0.00 0.00 0.00 62 1016.7
20260505025004 18 198 11.3 24.1 0.00 0.00 0.00 62 1016.8
20260505024004 18 196 12.9 25.7 0.00 0.00 0.00 62 1016.6
20260505023505 18 185 11.3 24.1 0.00 0.00 0.00 62 1016.6
20260505022504 18 222 9.7 24.1 0.00 0.00 0.00 61 1016.6
20260505022005 19 197 16.1 27.4 0.00 0.00 0.00 61 1016.6
20260505021505 19 209 12.9 27.4 0.00 0.00 0.00 61 1016.5
20260505021005 19 216 16.1 33.8 0.00 0.00 0.00 61 1016.5
20260505020005 19 185 11.3 19.3 0.00 0.00 0.00 60 1016.4
20260505015505 20 197 11.3 24.1 0.00 0.00 0.00 60 1016.3
20260505014505 20 178 17.7 27.4 0.00 0.00 0.00 59 1016.3
20260505014005 20 210 19.3 33.8 0.00 0.00 0.00 59 1016.1
20260505013504 20 198 9.7 27.4 0.00 0.00 0.00 59 1016.1
20260505013004 20 204 14.5 35.4 0.00 0.00 0.00 59 1016.0
20260505012505 20 201 12.9 25.7 0.00 0.00 0.00 58 1015.9
20260505012005 20 201 19.3 32.2 0.00 0.00 0.00 57 1015.9
20260505011505 20 193 16.1 29.0 0.00 0.00 0.00 55 1015.8
20260505011005 20 202 11.3 25.7 0.00 0.00 0.00 54 1015.5
20260505010505 20 198 12.9 24.1 0.00 0.00 0.00 50 1015.5
20260505010004 21 192 11.3 20.9 0.00 0.00 0.00 48 1015.4
20260505005505 21 201 8.0 20.9 0.00 0.00 0.00 46 1015.1
20260505005005 21 199 11.3 25.7 0.00 0.00 0.00 46 1015.1
20260505004504 21 194 8.0 12.9 0.00 0.00 0.00 45 1015.1
20260505004004 21 182 6.4 19.3 0.00 0.00 0.00 45 1015.0
20260505003505 21 186 4.8 12.9 0.00 0.00 0.00 45 1015.0
20260505003005 21 202 4.8 9.7 0.00 0.00 0.00 45 1015.0
20260505002005 21 197 4.8 9.7 0.00 0.00 0.00 44 1014.9
20260505001504 21 202 3.2 9.7 0.00 0.00 0.00 43 1014.8
20260505001004 22 199 4.8 8.0 0.00 0.00 0.00 42 1014.7
20260505000504 22 220 3.2 8.0 0.00 0.00 0.00 41 1014.7
20260504235505 22 207 6.4 11.3 0.00 0.00 0.00 39 1014.6
20260504235004 23 209 8.0 14.5 0.00 0.00 0.00 39 1014.6
20260504234504 23 216 8.0 14.5 0.00 0.00 0.00 38 1014.6
20260504234005 23 204 8.0 16.1 0.00 0.00 0.00 38 1014.5
20260504233505 23 205 11.3 19.3 0.00 0.00 0.00 37 1014.5
20260504233004 23 206 9.7 19.3 0.00 0.00 0.00 37 1014.4
20260504232505 23 197 8.0 16.1 0.00 0.00 0.00 38 1014.2
20260504232004 23 205 9.7 19.3 0.00 0.00 0.00 37 1014.2
20260504231505 23 209 8.0 16.1 0.00 0.00 0.00 37 1014.2
20260504231005 24 190 11.3 24.1 0.00 0.00 0.00 36 1014.3
20260504230505 24 204 14.5 29.0 0.00 0.00 0.00 36 1014.3